Storage Date, Storage Value ML
01/01/2011, 35846.3
02/01/2011, 35789.4
03/01/2011, 35732.6
04/01/2011, 35732.6
05/01/2011, 35619.1
06/01/2011, 35789.4
07/01/2011, 35732.6
08/01/2011, 35675.8
09/01/2011, 35619.1
10/01/2011, 35562.5
11/01/2011, 35449.5
12/01/2011, 35449.5
13/01/2011, 35336.7
14/01/2011, 35224.2
15/01/2011, 35168
16/01/2011, 35055.9
17/01/2011, 35000
18/01/2011, 34888.3
19/01/2011, 34832.5
20/01/2011, 34776.8
21/01/2011, 34665.7
22/01/2011, 34665.7
23/01/2011, 34610.2
24/01/2011, 34721.2
25/01/2011, 34665.7
26/01/2011, 34554.8
27/01/2011, 34554.8
28/01/2011, 34499.5
29/01/2011, 34499.5
30/01/2011, 34499.5
31/01/2011, 34444.2
01/02/2011, 34389
02/02/2011, 34333.8
03/02/2011, 34223.7
04/02/2011, 34168.8
05/02/2011, 34113.9
06/02/2011, 34004.4
07/02/2011, 34004.4
08/02/2011, 33840.5
09/02/2011, 33786
10/02/2011, 33731.6
11/02/2011, 33677.3
12/02/2011, 33568.8
13/02/2011, 33514.7
14/02/2011, 33406.6
15/02/2011, 33406.6
16/02/2011, 33298.7
17/02/2011, 33244.9
18/02/2011, 33191.2
19/02/2011, 33137.5
20/02/2011, 33083.9
21/02/2011, 32976.9
22/02/2011, 32923.4
23/02/2011, 32870.1
24/02/2011, 32816.8
25/02/2011, 32763.6
26/02/2011, 32710.4
27/02/2011, 32710.4
28/02/2011, 32604.3
01/03/2011, 32551.4
02/03/2011, 32445.7
03/03/2011, 32287.6
04/03/2011, 32235.1
05/03/2011, 32077.8
06/03/2011, 32025.5
07/03/2011, 31921.1
08/03/2011, 31817
09/03/2011, 31713.1
10/03/2011, 31557.8
11/03/2011, 31506.2
12/03/2011, 31403.1
13/03/2011, 31300.3
14/03/2011, 31249
15/03/2011, 31146.6
16/03/2011, 30942.6
17/03/2011, 30942.6
18/03/2011, 30891.7
19/03/2011, 30790.2
20/03/2011, 30689
21/03/2011, 30588.1
22/03/2011, 29495.1
23/03/2011, 30437.1
24/03/2011, 30336.8
25/03/2011, 30286.8
26/03/2011, 30137
27/03/2011, 30087.3
28/03/2011, 30037.5
29/03/2011, 29938.3
30/03/2011, 29839.4
31/03/2011, 29740.7
01/04/2011, 29691.4
02/04/2011, 29593.1
03/04/2011, 29544.1
04/04/2011, 29495.1
05/04/2011, 29446.2
06/04/2011, 29397.3
07/04/2011, 29397.3
08/04/2011, 29348.5
09/04/2011, 29299.8
10/04/2011, 29251.2
11/04/2011, 29202.6
12/04/2011, 29154.1
13/04/2011, 29105.6
14/04/2011, 29057.2
15/04/2011, 29008.9
16/04/2011, 28960.6
17/04/2011, 28912.5
18/04/2011, 28864.3
19/04/2011, 28816.3
20/04/2011, 28768.3
21/04/2011, 28768.3
22/04/2011, 28720.4
23/04/2011, 28672.5
24/04/2011, 28720.4
25/04/2011, 28720.4
26/04/2011, 28672.5
27/04/2011, 28768.3
28/04/2011, 28864.3
29/04/2011, 28864.3
30/04/2011, 28816.3
01/05/2011, 28816.3
02/05/2011, 28768.3
03/05/2011, 28768.3
04/05/2011, 28720.4
05/05/2011, 28720.4
06/05/2011, 28672.5
07/05/2011, 28672.5
08/05/2011, 28624.7
09/05/2011, 28577
10/05/2011, 28529.3
11/05/2011, 28481.7
12/05/2011, 28434.2
13/05/2011, 28434.2
14/05/2011, 28339.3
15/05/2011, 28339.3
16/05/2011, 28339.3
17/05/2011, 28339.3
18/05/2011, 28339.3
19/05/2011, 28339.3
20/05/2011, 28434.2
21/05/2011, 28386.7
22/05/2011, 28386.7
23/05/2011, 28339.3
24/05/2011, 28339.3
25/05/2011, 28339.3
26/05/2011, 28292
27/05/2011, 28292
28/05/2011, 28292
29/05/2011, 28244.8
30/05/2011, 28386.7
31/05/2011, 28386.7
01/06/2011, 28434.2
02/06/2011, 28481.7
03/06/2011, 28481.7
04/06/2011, 28434.2
05/06/2011, 28434.2
06/06/2011, 28386.7
07/06/2011, 28339.3
08/06/2011, 28339.3
09/06/2011, 28292
10/06/2011, 28292
11/06/2011, 28244.8
12/06/2011, 28244.8
13/06/2011, 28197.6
14/06/2011, 28150.4
15/06/2011, 28197.6
16/06/2011, 28244.8
17/06/2011, 28244.8
18/06/2011, 28244.8
19/06/2011, 28244.8
20/06/2011, 28292
21/06/2011, 28244.8
22/06/2011, 28244.8
23/06/2011, 28244.8
24/06/2011, 28292
25/06/2011, 28577
26/06/2011, 28577
27/06/2011, 28529.3
28/06/2011, 28816.3
29/06/2011, 28864.3
30/06/2011, 28912.5
01/07/2011, 29154.1
02/07/2011, 29154.1
03/07/2011, 29202.6
04/07/2011, 29202.6
05/07/2011, 29202.6
06/07/2011, 29202.6
07/07/2011, 29202.6
08/07/2011, 29202.6
09/07/2011, 29202.6
10/07/2011, 29154.1
11/07/2011, 29202.6
12/07/2011, 29251.2
13/07/2011, 29202.6
14/07/2011, 29202.6
15/07/2011, 29251.2
16/07/2011, 29299.8
17/07/2011, 29348.5
18/07/2011, 29299.8
19/07/2011, 29299.8
20/07/2011, 29348.5
21/07/2011, 29348.5
22/07/2011, 29397.3
23/07/2011, 29446.2
24/07/2011, 29446.2
25/07/2011, 29495.1
26/07/2011, 29544.1
27/07/2011, 29544.1
28/07/2011, 29790
29/07/2011, 29987.9
30/07/2011, 30137
31/07/2011, 30487.4
01/08/2011, 30840.9
02/08/2011, 31197.8
03/08/2011, 31661.3
04/08/2011, 32077.8
05/08/2011, 32235.1
06/08/2011, 32392.9
07/08/2011, 32445.7
08/08/2011, 32551.4
09/08/2011, 32657.4
10/08/2011, 32657.4
11/08/2011, 32710.4
12/08/2011, 32710.4
13/08/2011, 32763.6
14/08/2011, 32923.4
15/08/2011, 33083.9
16/08/2011, 33298.7
17/08/2011, 33460.6
18/08/2011, 33514.7
19/08/2011, 33677.3
20/08/2011, 33731.6
21/08/2011, 33786
22/08/2011, 34499.5
23/08/2011, 34944.1
24/08/2011, 35505.9
25/08/2011, 35846.3
26/08/2011, 36074.6
27/08/2011, 36189.1
28/08/2011, 36303.9
29/08/2011, 36419
30/08/2011, 36419
31/08/2011, 36476.6
01/09/2011, 36592.1
02/09/2011, 36707.9
03/09/2011, 36765.9
04/09/2011, 36882
05/09/2011, 36940.2
06/09/2011, 36940.2
07/09/2011, 36940.2
08/09/2011, 36940.2
09/09/2011, 36940.2
10/09/2011, 36940.2
11/09/2011, 36940.2
12/09/2011, 36940.2
13/09/2011, 36940.2
14/09/2011, 36940.2
15/09/2011, 36940.2
16/09/2011, 37056.8
17/09/2011, 37115.2
18/09/2011, 37467
19/09/2011, 37999.4
20/09/2011, 38178.1
21/09/2011, 38477.4
22/09/2011, 38718.1
23/09/2011, 38838.8
24/09/2011, 38959.8
25/09/2011, 39020.5
26/09/2011, 39141.9
27/09/2011, 39324.6
28/09/2011, 39446.8
29/09/2011, 39508
30/09/2011, 39508
01/10/2011, 39569.2
02/10/2011, 39630.6
03/10/2011, 39692
04/10/2011, 39753.4
05/10/2011, 39815
06/10/2011, 39815
07/10/2011, 39876.6
08/10/2011, 39876.6
09/10/2011, 39938.3
10/10/2011, 39938.3
11/10/2011, 39876.6
12/10/2011, 39876.6
13/10/2011, 39938.3
14/10/2011, 39876.6
15/10/2011, 39815
16/10/2011, 39815
17/10/2011, 39815
18/10/2011, 39753.4
19/10/2011, 39753.4
20/10/2011, 39692
21/10/2011, 39630.6
22/10/2011, 39630.6
23/10/2011, 39753.4
24/10/2011, 39753.4
25/10/2011, 39753.4
26/10/2011, 39753.4
27/10/2011, 39753.4
28/10/2011, 39753.4
29/10/2011, 39692
30/10/2011, 39630.6
31/10/2011, 39569.2
01/11/2011, 39569.2
02/11/2011, 39508
03/11/2011, 39508
04/11/2011, 39692
05/11/2011, 39692
06/11/2011, 39753.4
07/11/2011, 39815
08/11/2011, 39815
09/11/2011, 39876.6
10/11/2011, 39876.6
11/11/2011, 39876.6
12/11/2011, 39815
13/11/2011, 39815
14/11/2011, 39753.4
15/11/2011, 39692
16/11/2011, 39692
17/11/2011, 39692
18/11/2011, 39692
19/11/2011, 39630.6
20/11/2011, 39630.6
21/11/2011, 39508
22/11/2011, 39508
23/11/2011, 39508
24/11/2011, 39385.7
25/11/2011, 39379.6
26/11/2011, 39324.6
27/11/2011, 39263.7
28/11/2011, 39202.7
29/11/2011, 39081.2
30/11/2011, 39020.5
01/12/2011, 38959.8
02/12/2011, 38899.3
03/12/2011, 38838.8
04/12/2011, 38778.4
05/12/2011, 38718.1
06/12/2011, 38657.8
07/12/2011, 38657.8
08/12/2011, 38477.4
09/12/2011, 38597.6
10/12/2011, 38537.5
11/12/2011, 38477.4
12/12/2011, 38417.4
13/12/2011, 38597.6
14/12/2011, 38597.6
15/12/2011, 38537.5
16/12/2011, 38477.4
17/12/2011, 38477.4
18/12/2011, 38417.4
19/12/2011, 38357.5
20/12/2011, 38297.6
21/12/2011, 38237.9
22/12/2011, 38237.9
23/12/2011, 38178.1
24/12/2011, 38118.5
25/12/2011, 38058.9
26/12/2011, 37999.4
27/12/2011, 37940
28/12/2011, 37880.6
29/12/2011, 37821.3
30/12/2011, 37762.1
31/12/2011, 37703
01/01/2012, 37643.9
02/01/2012, 37584.9
03/01/2012, 37525.9
04/01/2012, 37467
05/01/2012, 37408.2
06/01/2012, 37349.5
07/01/2012, 37290.8
08/01/2012, 37232.2
09/01/2012, 37173.7
10/01/2012, 37115.2
11/01/2012, 36998.5
12/01/2012, 36940.2
13/01/2012, 36940.2
14/01/2012, 36882
15/01/2012, 36823.9
16/01/2012, 36765.9
17/01/2012, 36650
18/01/2012, 36592.1
19/01/2012, 36534.3
20/01/2012, 36476.6
21/01/2012, 36419
22/01/2012, 36361.4
23/01/2012, 36246.5
24/01/2012, 36246.5
25/01/2012, 36131.8
26/01/2012, 36074.6
27/01/2012, 36017.4
28/01/2012, 36017.4
29/01/2012, 35960.3
30/01/2012, 35846.3
31/01/2012, 35732.6
01/02/2012, 35619.1
02/02/2012, 35619.1
03/02/2012, 35562.5
04/02/2012, 35505.9
05/02/2012, 35449.5
06/02/2012, 35336.7
07/02/2012, 35280.4
08/02/2012, 35224.2
09/02/2012, 35111.9
10/02/2012, 35055.9
11/02/2012, 35055.9
12/02/2012, 35000
13/02/2012, 34888.3
14/02/2012, 34888.3
15/02/2012, 34776.8
16/02/2012, 34721.2
17/02/2012, 34665.7
18/02/2012, 34610.2
19/02/2012, 34554.8
20/02/2012, 34444.2
21/02/2012, 34444.2
22/02/2012, 34333.8
23/02/2012, 34278.7
24/02/2012, 34223.7
25/02/2012, 34168.8
26/02/2012, 34113.9
27/02/2012, 34004.4
28/02/2012, 33949.7
29/02/2012, 33895.1
01/03/2012, 33786
02/03/2012, 33731.6
03/03/2012, 33677.3
04/03/2012, 33623
05/03/2012, 33568.8
06/03/2012, 33514.7
07/03/2012, 33460.6
08/03/2012, 33352.6
09/03/2012, 33298.7
10/03/2012, 33298.7
11/03/2012, 33244.9
12/03/2012, 33137.5
13/03/2012, 33137.5
14/03/2012, 33030.3
15/03/2012, 32976.9
16/03/2012, 32923.4
17/03/2012, 32816.8
18/03/2012, 32763.6
19/03/2012, 32710.4
20/03/2012, 32657.4
21/03/2012, 32551.4
22/03/2012, 32498.5
23/03/2012, 32498.5
24/03/2012, 32445.7
25/03/2012, 32392.9
26/03/2012, 32287.6
27/03/2012, 32287.6
28/03/2012, 32235.1
29/03/2012, 32182.6
30/03/2012, 32130.1
31/03/2012, 32077.8
01/04/2012, 32025.5
02/04/2012, 32025.5
03/04/2012, 32077.8
04/04/2012, 32025.5
05/04/2012, 32025.5
06/04/2012, 31973.3
07/04/2012, 31921.1
08/04/2012, 31921.1
09/04/2012, 31869
10/04/2012, 31817
11/04/2012, 31817
12/04/2012, 31765
13/04/2012, 31713.1
14/04/2012, 31661.3
15/04/2012, 31609.5
16/04/2012, 31557.8
17/04/2012, 31557.8
18/04/2012, 31506.2
19/04/2012, 31506.2
20/04/2012, 31403.1
21/04/2012, 31403.1
22/04/2012, 31351.7
23/04/2012, 31300.3
24/04/2012, 31249
25/04/2012, 31249
26/04/2012, 31197.8
27/04/2012, 31197.8
28/04/2012, 31146.6
29/04/2012, 31146.6
30/04/2012, 31146.6
01/05/2012, 31146.6
02/05/2012, 31095.5
03/05/2012, 31095.5
04/05/2012, 31095.5
05/05/2012, 31197.8
06/05/2012, 31197.8
07/05/2012, 31197.8
08/05/2012, 31300.3
09/05/2012, 31249
10/05/2012, 31249
11/05/2012, 31197.8
12/05/2012, 31197.8
13/05/2012, 31146.6
14/05/2012, 31146.6
15/05/2012, 31146.6
16/05/2012, 31095.5
17/05/2012, 31044.4
18/05/2012, 31146.6
19/05/2012, 31044.4
20/05/2012, 30993.5
21/05/2012, 30993.5
22/05/2012, 30942.6
23/05/2012, 30891.7
24/05/2012, 30840.9
25/05/2012, 30840.9
26/05/2012, 30840.9
27/05/2012, 30790.2
28/05/2012, 30790.2
29/05/2012, 30739.6
30/05/2012, 30739.6
31/05/2012, 30689
01/06/2012, 30739.6
02/06/2012, 30739.6
03/06/2012, 30689
04/06/2012, 30638.5
05/06/2012, 30638.5
06/06/2012, 30588.1
07/06/2012, 30638.5
08/06/2012, 30689
09/06/2012, 30638.5
10/06/2012, 30638.5
11/06/2012, 30993.5
12/06/2012, 31044.4
13/06/2012, 31351.7
14/06/2012, 31351.7
15/06/2012, 31403.1
16/06/2012, 31403.1
17/06/2012, 31403.1
18/06/2012, 31403.1
19/06/2012, 31609.5
20/06/2012, 31609.5
21/06/2012, 31609.5
22/06/2012, 31609.5
23/06/2012, 31609.5
24/06/2012, 31557.8
25/06/2012, 31609.5
26/06/2012, 31609.5
27/06/2012, 31609.5
28/06/2012, 31609.5
29/06/2012, 31557.8
30/06/2012, 31557.8
01/07/2012, 31557.8
02/07/2012, 31506.2
03/07/2012, 31506.2
04/07/2012, 31454.6
05/07/2012, 31454.6
06/07/2012, 31403.1
07/07/2012, 31454.6
08/07/2012, 31403.1
09/07/2012, 31403.1
10/07/2012, 31351.7
11/07/2012, 31351.7
12/07/2012, 31351.7
13/07/2012, 31351.7
14/07/2012, 31300.3
15/07/2012, 31300.3
16/07/2012, 31300.3
17/07/2012, 31300.3
18/07/2012, 31300.3
19/07/2012, 31300.3
20/07/2012, 31300.3
21/07/2012, 31249
22/07/2012, 31249
23/07/2012, 31197.8
24/07/2012, 31197.8
25/07/2012, 31146.6
26/07/2012, 31146.6
27/07/2012, 31146.6
28/07/2012, 31146.6
29/07/2012, 31095.5
30/07/2012, 31044.4
31/07/2012, 31095.5
01/08/2012, 31146.6
02/08/2012, 31146.6
03/08/2012, 31197.8
04/08/2012, 31044.4
05/08/2012, 31249
06/08/2012, 31300.3
07/08/2012, 31351.7
08/08/2012, 31351.7
09/08/2012, 31351.7
10/08/2012, 31351.7
11/08/2012, 31351.7
12/08/2012, 31351.7
13/08/2012, 31661.3
14/08/2012, 31713.1
15/08/2012, 31817
16/08/2012, 31869
17/08/2012, 31921.1
18/08/2012, 31921.1
19/08/2012, 31921.1
20/08/2012, 31921.1
21/08/2012, 32025.5
22/08/2012, 32025.5
23/08/2012, 32077.8
24/08/2012, 32077.8
25/08/2012, 32077.8
26/08/2012, 32025.5
27/08/2012, 32025.5
28/08/2012, 32025.5
29/08/2012, 32025.5
30/08/2012, 32025.5
31/08/2012, 31973.3
01/09/2012, 32025.5
02/09/2012, 32077.8
03/09/2012, 32130.1
04/09/2012, 32287.6
05/09/2012, 32445.7
06/09/2012, 32657.4
07/09/2012, 32816.8
08/09/2012, 32816.8
09/09/2012, 32870.1
10/09/2012, 32923.4
11/09/2012, 32923.4
12/09/2012, 32923.4
13/09/2012, 32923.4
14/09/2012, 32923.4
15/09/2012, 32870.1
16/09/2012, 32870.1
17/09/2012, 32816.8
18/09/2012, 32870.1
19/09/2012, 32870.1
20/09/2012, 32923.4
21/09/2012, 33083.9
22/09/2012, 33137.5
23/09/2012, 33191.2
24/09/2012, 33244.9
25/09/2012, 33298.7
26/09/2012, 33352.6
27/09/2012, 33568.8
28/09/2012, 33731.6
29/09/2012, 33786
30/09/2012, 33840.5
01/10/2012, 33895.1
02/10/2012, 33895.1
03/10/2012, 33949.7
04/10/2012, 33949.7
05/10/2012, 33949.7
06/10/2012, 33949.7
07/10/2012, 33949.7
08/10/2012, 33949.7
09/10/2012, 33949.7
10/10/2012, 33949.7
11/10/2012, 33895.1
12/10/2012, 33895.1
13/10/2012, 33840.5
14/10/2012, 33895.1
15/10/2012, 33840.5
16/10/2012, 33840.5
17/10/2012, 33786
18/10/2012, 33786
19/10/2012, 33731.6
20/10/2012, 33731.6
21/10/2012, 33677.3
22/10/2012, 33677.3
23/10/2012, 33406.6
24/10/2012, 33568.8
25/10/2012, 33298.7
26/10/2012, 33460.6
27/10/2012, 33406.6
28/10/2012, 33406.6
29/10/2012, 33352.6
30/10/2012, 33298.7
31/10/2012, 33244.9
01/11/2012, 33191.2
02/11/2012, 33137.5
03/11/2012, 33137.5
04/11/2012, 33191.2
05/11/2012, 33244.9
06/11/2012, 33244.9
07/11/2012, 33191.2
08/11/2012, 33137.5
09/11/2012, 33137.5
10/11/2012, 33083.9
11/11/2012, 33030.3
12/11/2012, 32976.9
13/11/2012, 32923.4
14/11/2012, 32923.4
15/11/2012, 32870.1
16/11/2012, 32816.8
17/11/2012, 32763.6
18/11/2012, 32763.6
19/11/2012, 32710.4
20/11/2012, 32657.4
21/11/2012, 32551.4
22/11/2012, 32498.5
23/11/2012, 32498.5
24/11/2012, 32445.7
25/11/2012, 32392.9
26/11/2012, 32340.2
27/11/2012, 32287.6
28/11/2012, 32340.2
29/11/2012, 32445.7
30/11/2012, 32392.9
01/12/2012, 32340.2
02/12/2012, 32340.2
03/12/2012, 32287.6
04/12/2012, 32235.1
05/12/2012, 32182.6
06/12/2012, 32130.1
07/12/2012, 32025.5
08/12/2012, 32025.5
09/12/2012, 31973.3
10/12/2012, 31921.1
11/12/2012, 31869
12/12/2012, 31921.1
13/12/2012, 32498.5
14/12/2012, 32551.4
15/12/2012, 32710.4
16/12/2012, 32923.4
17/12/2012, 32976.9
18/12/2012, 33030.3
19/12/2012, 32976.9
20/12/2012, 32923.4
21/12/2012, 32870.1
22/12/2012, 32870.1
23/12/2012, 32816.8
24/12/2012, 32763.6
25/12/2012, 32710.4
26/12/2012, 32657.4
27/12/2012, 32551.4
28/12/2012, 32498.5
29/12/2012, 32498.5
30/12/2012, 32445.7
31/12/2012, 32392.9
01/01/2013, 32340.2
02/01/2013, 32287.6
03/01/2013, 32235.1
04/01/2013, 32130.1
05/01/2013, 32077.8
06/01/2013, 32025.5
07/01/2013, 32077.8
08/01/2013, 32077.8
09/01/2013, 31973.3
10/01/2013, 31921.1
11/01/2013, 31817
12/01/2013, 31765
13/01/2013, 31713.1
14/01/2013, 31661.3
15/01/2013, 31609.5
16/01/2013, 31557.8
17/01/2013, 31454.6
18/01/2013, 31403.1
19/01/2013, 31351.7
20/01/2013, 31300.3
21/01/2013, 31197.8
22/01/2013, 31146.6
23/01/2013, 31095.5
24/01/2013, 30993.5
25/01/2013, 30942.6
26/01/2013, 30891.7
27/01/2013, 31146.6
28/01/2013, 30739.6
29/01/2013, 30689
30/01/2013, 30588.1
31/01/2013, 30537.7
01/02/2013, 30487.4
02/02/2013, 30386.9
03/02/2013, 30336.8
04/02/2013, 30286.8
05/02/2013, 30236.8
06/02/2013, 30137
07/02/2013, 30087.3
08/02/2013, 29987.9
09/02/2013, 29987.9
10/02/2013, 29888.8
11/02/2013, 29839.4
12/02/2013, 29740.7
13/02/2013, 29691.4
14/02/2013, 29642.2
15/02/2013, 29544.1
16/02/2013, 29544.1
17/02/2013, 29446.2
18/02/2013, 29348.5
19/02/2013, 29299.8
20/02/2013, 29251.2
21/02/2013, 29202.6
22/02/2013, 29154.1
23/02/2013, 29105.6
24/02/2013, 29008.9
25/02/2013, 28960.6
26/02/2013, 28864.3
27/02/2013, 28816.3
28/02/2013, 28768.3
01/03/2013, 28720.4
02/03/2013, 28624.7
03/03/2013, 28577
04/03/2013, 28529.3
05/03/2013, 28529.3
06/03/2013, 28434.2
07/03/2013, 28339.3
08/03/2013, 28292
09/03/2013, 28244.8
10/03/2013, 28197.6
11/03/2013, 28197.6
12/03/2013, 28103.4
13/03/2013, 28056.3
14/03/2013, 28056.3
15/03/2013, 28150.4
16/03/2013, 28103.4
17/03/2013, 28056.3
18/03/2013, 28009.4
19/03/2013, 28009.4
20/03/2013, 28624.7
21/03/2013, 27915.7
22/03/2013, 27869
23/03/2013, 27822.3
24/03/2013, 27775.7
25/03/2013, 27729.2
26/03/2013, 27775.7
27/03/2013, 27775.7
28/03/2013, 27729.2
29/03/2013, 27682.7
30/03/2013, 27636.3
31/03/2013, 27589.9
01/04/2013, 27543.6
02/04/2013, 27497.4
03/04/2013, 27497.4
04/04/2013, 27451.3
05/04/2013, 27451.3
06/04/2013, 27405.2
07/04/2013, 27359.2
08/04/2013, 27313.2
09/04/2013, 27267.3
10/04/2013, 27221.5
11/04/2013, 27221.5
12/04/2013, 27221.5
13/04/2013, 27175.7
14/04/2013, 27175.7
15/04/2013, 27130
16/04/2013, 27084.4
17/04/2013, 27038.8
18/04/2013, 27130
19/04/2013, 27084.4
20/04/2013, 27038.8
21/04/2013, 26993.3
22/04/2013, 26993.3
23/04/2013, 26947.8
24/04/2013, 26993.3
25/04/2013, 26902.5
26/04/2013, 26857.1
27/04/2013, 26811.9
28/04/2013, 26811.9
29/04/2013, 26766.7
30/04/2013, 26721.6
01/05/2013, 26676.5
02/05/2013, 26766.7
03/05/2013, 26811.9
04/05/2013, 26766.7
05/05/2013, 26766.7
06/05/2013, 26721.6
07/05/2013, 26811.9
08/05/2013, 26811.9
09/05/2013, 26857.1
10/05/2013, 26993.3
11/05/2013, 26947.8
12/05/2013, 26947.8
13/05/2013, 26902.5
14/05/2013, 26902.5
15/05/2013, 26811.9
16/05/2013, 26766.7
17/05/2013, 26902.5
18/05/2013, 26857.1
19/05/2013, 26857.1
20/05/2013, 26902.5
21/05/2013, 26902.5
22/05/2013, 26857.1
23/05/2013, 26857.1
24/05/2013, 26857.1
25/05/2013, 26811.9
26/05/2013, 26811.9
27/05/2013, 26766.7
28/05/2013, 26766.7
29/05/2013, 26721.6
30/05/2013, 26766.7
31/05/2013, 26766.7
01/06/2013, 26721.6
02/06/2013, 26721.6
03/06/2013, 26676.5
04/06/2013, 26676.5
05/06/2013, 26631.5
06/06/2013, 26631.5
07/06/2013, 26631.5
08/06/2013, 26586.6
09/06/2013, 26676.5
10/06/2013, 26631.5
11/06/2013, 26631.5
12/06/2013, 26586.6
13/06/2013, 26586.6
14/06/2013, 26586.6
15/06/2013, 26541.7
16/06/2013, 26541.7
17/06/2013, 26496.9
18/06/2013, 26496.9
19/06/2013, 26452.2
20/06/2013, 26452.2
21/06/2013, 26407.5
22/06/2013, 26407.5
23/06/2013, 26362.9
24/06/2013, 26407.5
25/06/2013, 26407.5
26/06/2013, 26362.9
27/06/2013, 26362.9
28/06/2013, 26362.9
29/06/2013, 26318.3
30/06/2013, 26318.3
01/07/2013, 26318.3
02/07/2013, 26273.8
03/07/2013, 26273.8
04/07/2013, 26273.8
05/07/2013, 26229.4
06/07/2013, 26229.4
07/07/2013, 26052.3
08/07/2013, 26140.7
09/07/2013, 26140.7
10/07/2013, 26229.4
11/07/2013, 26185
12/07/2013, 26140.7
13/07/2013, 26185
14/07/2013, 26185
15/07/2013, 26185
16/07/2013, 26185
17/07/2013, 26273.8
18/07/2013, 26318.3
19/07/2013, 26318.3
20/07/2013, 26318.3
21/07/2013, 26318.3
22/07/2013, 26273.8
23/07/2013, 26273.8
24/07/2013, 26541.7
25/07/2013, 26586.6
26/07/2013, 26766.7
27/07/2013, 27038.8
28/07/2013, 27130
29/07/2013, 27313.2
30/07/2013, 27405.2
31/07/2013, 27497.4
01/08/2013, 27589.9
02/08/2013, 27636.3
03/08/2013, 27636.3
04/08/2013, 27636.3
05/08/2013, 27729.2
06/08/2013, 27962.5
07/08/2013, 28624.7
08/08/2013, 29495.1
09/08/2013, 30037.5
10/08/2013, 30386.9
11/08/2013, 30689
12/08/2013, 30840.9
13/08/2013, 30993.5
14/08/2013, 31249
15/08/2013, 31300.3
16/08/2013, 31403.1
17/08/2013, 31557.8
18/08/2013, 31661.3
19/08/2013, 31765
20/08/2013, 31817
21/08/2013, 31869
22/08/2013, 31921.1
23/08/2013, 31973.3
24/08/2013, 32025.5
25/08/2013, 32025.5
26/08/2013, 32077.8
27/08/2013, 32182.6
28/08/2013, 32392.9
29/08/2013, 32445.7
30/08/2013, 32604.3
31/08/2013, 32923.4
01/09/2013, 33083.9
02/09/2013, 33244.9
03/09/2013, 33460.6
04/09/2013, 34059.1
05/09/2013, 34333.8
06/09/2013, 34554.8
07/09/2013, 34665.7
08/09/2013, 34776.8
09/09/2013, 34888.3
10/09/2013, 35000
11/09/2013, 35336.7
12/09/2013, 35619.1
13/09/2013, 35960.3
14/09/2013, 36246.5
15/09/2013, 36650
16/09/2013, 37056.8
17/09/2013, 37408.2
18/09/2013, 37762.1
19/09/2013, 38058.9
20/09/2013, 38417.4
21/09/2013, 38778.4
22/09/2013, 39141.9
23/09/2013, 40185.7
24/09/2013, 41060.9
25/09/2013, 41758.5
26/09/2013, 42207
27/09/2013, 42659.2
28/09/2013, 42854.1
29/09/2013, 43049.7
30/09/2013, 43311.5
01/10/2013, 43442.8
02/10/2013, 43574.5
03/10/2013, 43640.4
04/10/2013, 43772.5
05/10/2013, 43772.5
06/10/2013, 43905
07/10/2013, 43971.3
08/10/2013, 43971.3
09/10/2013, 43971.3
10/10/2013, 43971.3
11/10/2013, 43971.3
12/10/2013, 44037.7
13/10/2013, 43971.3
14/10/2013, 43971.3
15/10/2013, 43971.3
16/10/2013, 43971.3
17/10/2013, 43971.3
18/10/2013, 43971.3
19/10/2013, 43971.3
20/10/2013, 44104.1
21/10/2013, 44104.1
22/10/2013, 44104.1
23/10/2013, 44104.1
24/10/2013, 44104.1
25/10/2013, 44104.1
26/10/2013, 44037.7
27/10/2013, 44037.7
28/10/2013, 43971.3
29/10/2013, 43971.3
30/10/2013, 43971.3
31/10/2013, 43905
01/11/2013, 43838.7
02/11/2013, 43838.7
03/11/2013, 43706.4
04/11/2013, 43706.4
05/11/2013, 43640.4
06/11/2013, 43838.7
07/11/2013, 43772.5
08/11/2013, 43772.5
09/11/2013, 43706.4
10/11/2013, 43640.4
11/11/2013, 43574.5
12/11/2013, 43508.6
13/11/2013, 43442.8
14/11/2013, 43377.1
15/11/2013, 43311.5
16/11/2013, 43245.9
17/11/2013, 43180.4
18/11/2013, 43115
20/11/2013, 42984.4
21/11/2013, 42854.1
22/11/2013, 42789
23/11/2013, 42789
24/11/2013, 42724.1
25/11/2013, 42659.2
26/11/2013, 42594.4
27/11/2013, 42529.6
28/11/2013, 42465
29/11/2013, 42400.4
30/11/2013, 42335.8
01/12/2013, 42400.4
02/12/2013, 42335.8
03/12/2013, 42207
04/12/2013, 42142.7
05/12/2013, 42078.5
06/12/2013, 42078.5
07/12/2013, 42014.3
08/12/2013, 41950.3
09/12/2013, 41822.3
10/12/2013, 41758.5
11/12/2013, 41758.5
12/12/2013, 41631
13/12/2013, 41567.3
14/12/2013, 41567.3
15/12/2013, 41503.8
16/12/2013, 41376.9
17/12/2013, 41376.9
18/12/2013, 41313.5
19/12/2013, 41187.1
20/12/2013, 41060.9
23/12/2013, 40872.2
24/12/2013, 40372.1
25/12/2013, 40746.7
26/12/2013, 40684.1
27/12/2013, 40621.5
28/12/2013, 40496.7
29/12/2013, 40496.7
30/12/2013, 40434.3
31/12/2013, 40372.1
01/01/2014, 40247.8
02/01/2014, 40185.7
03/01/2014, 40061.9
06/01/2014, 39876.6
07/01/2014, 39876.6
08/01/2014, 39692
09/01/2014, 39692
10/01/2014, 39630.6
11/01/2014, 39569.2
12/01/2014, 39508
13/01/2014, 39385.7
14/01/2014, 39324.6
15/01/2014, 39202.7
16/01/2014, 39141.9
17/01/2014, 39020.5
18/01/2014, 39020.5
20/01/2014, 38838.8
21/01/2014, 38718.1
22/01/2014, 39263.7
23/01/2014, 39202.7
24/01/2014, 38477.4
25/01/2014, 38417.4
27/01/2014, 38237.9
28/01/2014, 38118.5
29/01/2014, 38058.9
30/01/2014, 37999.4
31/01/2014, 37880.6
01/02/2014, 37821.3
02/02/2014, 37762.1
03/02/2014, 37584.9
04/02/2014, 37467
05/02/2014, 37467
06/02/2014, 37467
07/02/2014, 37349.5
08/02/2014, 37290.8
09/02/2014, 37173.7
10/02/2014, 37115.2
11/02/2014, 36998.5
12/02/2014, 36940.2
13/02/2014, 36823.9
14/02/2014, 36765.9
15/02/2014, 36765.9
16/02/2014, 36650
17/02/2014, 36592.1
18/02/2014, 36476.6
19/02/2014, 36476.6
20/02/2014, 36361.4
21/02/2014, 36303.9
22/02/2014, 36246.5
23/02/2014, 36189.1
24/02/2014, 36131.8
25/02/2014, 36074.6
26/02/2014, 35903.3
27/02/2014, 35846.3
28/02/2014, 35846.3
01/03/2014, 35789.4
02/03/2014, 35732.6
03/03/2014, 35619.1
04/03/2014, 35505.9